Location: Unspecified
(0.0000°N, 0.0000°E)
Time: 16:41:08
(UTC+00:00)

Transit 2A - All Passes

Search period start: 02 September 2014 00:00
Search period end: 12 September 2014 00:00
Orbit: 602 x 961 km, 66.7° (Epoch: 01 September)

Date Brightness Start Highest point End Pass type
(mag) Time Alt. Az. Time Alt. Az. Time Alt. Az.
02 Sep - 02:21:34 10° NNW 02:27:09 62° WSW 02:33:15 10° S night (unlit)
02 Sep - 13:16:13 10° SSE 13:20:15 25° ESE 13:24:00 10° ENE daylight
02 Sep - 15:00:19 10° WSW 15:03:07 15° WNW 15:05:48 10° NW daylight
03 Sep - 01:48:02 10° NNW 01:53:41 84° ENE 01:59:52 10° SSE night (unlit)
03 Sep - 12:44:04 10° SE 12:46:42 14° ESE 12:49:14 10° E daylight
03 Sep - 14:25:38 10° SW 14:29:43 27° WNW 14:33:31 10° NNW daylight
04 Sep - 01:14:46 10° N 01:20:15 52° ENE 01:26:12 10° SSE night (unlit)
04 Sep - 03:01:01 10° W 03:03:29 13° WSW 03:06:01 10° SW night (unlit)
04 Sep - 13:51:36 10° SW 13:56:18 47° WNW 14:00:38 10° N daylight
05 Sep - 00:41:49 10° N 00:46:50 33° ENE 00:52:12 10° SE night (unlit)
05 Sep - 02:25:40 10° WNW 02:29:55 21° WSW 02:34:23 10° SSW night (unlit)
05 Sep - 13:17:56 10° SSW 13:22:53 86° WNW 13:27:23 10° NNE daylight
06 Sep - 00:09:18 10° NNE 00:13:25 20° ENE 00:17:45 10° ESE night (unlit)
06 Sep - 01:51:16 10° NW 01:56:22 33° WSW 02:01:50 10° S night (unlit)
06 Sep - 12:44:36 10° S 12:49:25 53° ESE 12:53:48 10° NE daylight
06 Sep - 23:37:46 10° NE 23:39:59 12° ENE 23:42:16 10° E night (unlit)
07 Sep - 01:17:18 10° NW 01:22:51 52° WSW 01:28:52 10° S night (unlit)
07 Sep - 12:11:37 10° S 12:15:54 30° ESE 12:19:53 10° NE daylight
07 Sep - 13:56:53 10° W 13:58:43 12° WNW 14:00:31 10° NW daylight
08 Sep - 00:43:39 10° NNW 00:49:22 83° WSW 00:55:36 10° SSE night (unlit)
08 Sep - 11:39:09 10° SSE 11:42:22 17° ESE 11:45:25 10° ENE daylight
08 Sep - 13:21:41 10° WSW 13:25:19 22° WNW 13:28:45 10° NNW daylight
09 Sep - 00:10:17 10° N 00:15:55 63° ENE 00:22:02 10° SSE night (unlit)
09 Sep - 01:58:20 10° WSW 01:59:12 10° WSW 02:00:05 10° WSW night (unlit)
09 Sep - 12:47:27 10° SW 12:51:54 38° WNW 12:56:02 10° N daylight
09 Sep - 23:37:12 10° N 23:42:29 39° ENE 23:48:10 10° SE night (unlit)
10 Sep - 01:21:50 10° WNW 01:25:38 18° WSW 01:29:35 10° SSW night (unlit)
10 Sep - 12:13:39 10° SSW 12:18:29 69° WNW 12:22:55 10° NNE daylight
10 Sep - 23:04:29 10° NNE 23:09:04 25° ENE 23:13:56 10° SE night (unlit)
11 Sep - 00:47:10 10° NW 00:52:04 28° WSW 00:57:16 10° SSW night (unlit)
11 Sep - 11:40:11 10° SSW 11:45:01 66° ESE 11:49:27 10° NNE daylight
11 Sep - 22:32:23 10° NE 22:35:38 15° ENE 22:39:00 10° ESE night (unlit)
